| time (UTC) | temp F | wind direction | speed MPH | gust MPH | rain 1hr in | rain 24hr in | rain mn in | humidity % | barometer mb |
| 20260507060010 | 57 | 138 | 0.0 | 2.0 | 0.00 | 0.04 | 0.00 | 93 | 1006.4 |
| 20260507054513 | 57 | 127 | 0.0 | 1.0 | 0.00 | 0.04 | 0.00 | 93 | 1006.2 |
| 20260507053010 | 57 | 127 | 0.0 | 1.0 | 0.00 | 0.04 | 0.00 | 93 | 1006.2 |
| 20260507051514 | 57 | 126 | 0.0 | 0.0 | 0.00 | 0.04 | 0.00 | 93 | 1006.2 |
| 20260507050035 | 57 | 252 | 0.0 | 1.0 | 0.00 | 0.04 | 0.00 | 93 | 1006.6 |
| 20260507044522 | 57 | 230 | 0.0 | 3.0 | 0.00 | 0.04 | 0.00 | 93 | 1006.3 |
| 20260507043016 | 57 | 185 | 0.0 | 2.0 | 0.00 | 0.04 | 0.00 | 92 | 1006.0 |
| 20260507041516 | 57 | 250 | 1.0 | 8.0 | 0.00 | 0.04 | 0.00 | 92 | 1006.3 |
| 20260507040018 | 57 | 248 | 0.0 | 5.0 | 0.00 | 0.04 | 0.00 | 92 | 1006.4 |
| 20260507034519 | 57 | 213 | 0.0 | 5.0 | 0.00 | 0.04 | 0.04 | 92 | 1006.7 |
| 20260507033030 | 56 | 230 | 2.0 | 7.0 | 0.00 | 0.04 | 0.04 | 92 | 1006.3 |
| 20260507031517 | 56 | 219 | 1.0 | 8.0 | 0.00 | 0.04 | 0.04 | 92 | 1006.2 |
| 20260507030018 | 56 | 226 | 1.0 | 6.0 | 0.00 | 0.04 | 0.04 | 92 | 1006.0 |
| 20260507024519 | 56 | 193 | 2.0 | 7.0 | 0.00 | 0.04 | 0.04 | 92 | 1006.1 |
| 20260507023020 | 56 | 224 | 1.0 | 8.0 | 0.00 | 0.04 | 0.04 | 92 | 1005.9 |
| 20260507021533 | 56 | 217 | 2.0 | 9.0 | 0.00 | 0.04 | 0.04 | 92 | 1006.0 |
| 20260507020023 | 56 | 169 | 4.0 | 10.0 | 0.00 | 0.04 | 0.04 | 92 | 1006.0 |
| 20260507014520 | 56 | 281 | 2.0 | 8.0 | 0.00 | 0.04 | 0.04 | 92 | 1006.5 |
| 20260507013019 | 56 | 213 | 1.0 | 8.0 | 0.00 | 0.04 | 0.04 | 92 | 1006.5 |
| 20260507011528 | 56 | 191 | 4.0 | 11.0 | 0.00 | 0.04 | 0.04 | 92 | 1006.6 |
| 20260507010034 | 56 | 256 | 3.0 | 7.0 | 0.00 | 0.04 | 0.04 | 92 | 1006.4 |
| 20260507004521 | 56 | 143 | 4.0 | 10.0 | 0.01 | 0.04 | 0.04 | 92 | 1006.4 |
| 20260507003022 | 56 | 206 | 3.0 | 10.0 | 0.01 | 0.04 | 0.04 | 92 | 1006.4 |
| 20260507001520 | 56 | 164 | 3.0 | 11.0 | 0.02 | 0.04 | 0.04 | 92 | 1006.5 |
| 20260507000024 | 56 | 234 | 3.0 | 12.0 | 0.02 | 0.04 | 0.04 | 92 | 1006.3 |
| 20260506234520 | 56 | 108 | 3.0 | 10.0 | 0.01 | 0.03 | 0.03 | 91 | 1006.3 |
| 20260506233024 | 56 | 244 | 2.0 | 11.0 | 0.01 | 0.03 | 0.03 | 91 | 1006.3 |
| 20260506231525 | 57 | 169 | 4.0 | 17.0 | 0.01 | 0.02 | 0.02 | 91 | 1006.5 |
| 20260506230026 | 57 | 231 | 4.0 | 14.0 | 0.01 | 0.02 | 0.02 | 91 | 1006.6 |
| 20260506224521 | 57 | 201 | 3.0 | 9.0 | 0.01 | 0.02 | 0.02 | 91 | 1006.6 |
| 20260506223022 | 57 | 234 | 2.0 | 11.0 | 0.01 | 0.02 | 0.02 | 90 | 1007.0 |
| 20260506221523 | 58 | 260 | 2.0 | 15.0 | 0.00 | 0.01 | 0.01 | 89 | 1007.0 |
| 20260506220031 | 58 | 219 | 3.0 | 21.0 | 0.00 | 0.01 | 0.01 | 87 | 1007.2 |
| 20260506214525 | 59 | 257 | 5.0 | 12.0 | 0.01 | 0.01 | 0.01 | 87 | 1007.1 |
| 20260506213008 | 58 | 221 | 3.0 | 10.0 | 0.01 | 0.01 | 0.01 | 87 | 1007.1 |
| 20260506211514 | 58 | 172 | 3.0 | 11.0 | 0.01 | 0.01 | 0.01 | 88 | 1007.1 |
| 20260506210018 | 59 | 179 | 2.0 | 11.0 | 0.01 | 0.01 | 0.01 | 86 | 1007.3 |
| 20260506204528 | 59 | 208 | 2.0 | 9.0 | 0.00 | 0.00 | 0.00 | 85 | 1007.3 |
| 20260506203029 | 60 | 264 | 5.0 | 15.0 | 0.00 | 0.00 | 0.00 | 85 | 1007.3 |
| 20260506201511 | 60 | 221 | 2.0 | 13.0 | 0.00 | 0.00 | 0.00 | 84 | 1007.4 |
| 20260506200013 | 61 | 167 | 2.0 | 12.0 | 0.00 | 0.00 | 0.00 | 82 | 1007.5 |
| 20260506194518 | 62 | 218 | 5.0 | 15.0 | 0.00 | 0.00 | 0.00 | 78 | 1007.8 |
| 20260506193023 | 63 | 167 | 5.0 | 16.0 | 0.00 | 0.00 | 0.00 | 75 | 1007.9 |
| 20260506191527 | 63 | 134 | 4.0 | 16.0 | 0.00 | 0.00 | 0.00 | 74 | 1008.0 |
| 20260506190010 | 64 | 224 | 5.0 | 16.0 | 0.00 | 0.00 | 0.00 | 73 | 1007.4 |
| 20260506184516 | 64 | 198 | 3.0 | 15.0 | 0.00 | 0.00 | 0.00 | 73 | 1007.8 |
| 20260506183021 | 65 | 186 | 4.0 | 16.0 | 0.00 | 0.00 | 0.00 | 71 | 1007.9 |
| 20260506181528 | 65 | 117 | 4.0 | 14.0 | 0.00 | 0.00 | 0.00 | 70 | 1008.1 |
| 20260506180011 | 66 | 110 | 6.0 | 18.0 | 0.00 | 0.00 | 0.00 | 69 | 1008.6 |
| 20260506174511 | 67 | 237 | 7.0 | 22.0 | 0.00 | 0.00 | 0.00 | 68 | 1008.7 |
| 20260506173018 | 67 | 172 | 4.0 | 12.0 | 0.00 | 0.00 | 0.00 | 67 | 1008.7 |
| 20260506171534 | 67 | 210 | 6.0 | 16.0 | 0.00 | 0.00 | 0.00 | 67 | 1008.6 |
| 20260506170025 | 67 | 115 | 4.0 | 15.0 | 0.00 | 0.00 | 0.00 | 67 | 1008.9 |
| 20260506164510 | 67 | 202 | 6.0 | 20.0 | 0.00 | 0.00 | 0.00 | 67 | 1009.0 |
| 20260506163017 | 68 | 219 | 4.0 | 13.0 | 0.00 | 0.00 | 0.00 | 67 | 1009.2 |
| 20260506161522 | 69 | 246 | 2.0 | 20.0 | 0.00 | 0.00 | 0.00 | 65 | 1009.3 |
| 20260506160034 | 68 | 46 | 3.0 | 21.0 | 0.00 | 0.00 | 0.00 | 66 | 1009.6 |
| 20260506154530 | 69 | 134 | 2.0 | 17.0 | 0.00 | 0.00 | 0.00 | 66 | 1009.9 |
| 20260506153012 | 68 | 198 | 5.0 | 18.0 | 0.00 | 0.00 | 0.00 | 66 | 1010.2 |
| 20260506151527 | 69 | 219 | 3.0 | 13.0 | 0.00 | 0.00 | 0.00 | 65 | 1010.1 |
| 20260506150027 | 68 | 221 | 4.0 | 13.0 | 0.00 | 0.00 | 0.00 | 66 | 1010.1 |
| 20260506144521 | 68 | 243 | 6.0 | 17.0 | 0.00 | 0.00 | 0.00 | 65 | 1010.0 |
| 20260506143039 | 67 | 217 | 4.0 | 13.0 | 0.00 | 0.00 | 0.00 | 67 | 1009.9 |
| 20260506141514 | 68 | 187 | 3.0 | 12.0 | 0.00 | 0.00 | 0.00 | 69 | 1009.9 |
| 20260506140018 | 67 | 224 | 4.0 | 12.0 | 0.00 | 0.00 | 0.00 | 68 | 1010.0 |
| 20260506134520 | 66 | 21 | 4.0 | 18.0 | 0.00 | 0.00 | 0.00 | 72 | 1010.6 |
| 20260506133026 | 64 | 213 | 5.0 | 16.0 | 0.00 | 0.00 | 0.00 | 74 | 1010.6 |
| 20260506131528 | 63 | 176 | 5.0 | 12.0 | 0.00 | 0.00 | 0.00 | 76 | 1010.6 |
| 20260506130012 | 62 | 239 | 4.0 | 11.0 | 0.00 | 0.00 | 0.00 | 78 | 1010.7 |
| 20260506124519 | 61 | 236 | 5.0 | 13.0 | 0.00 | 0.00 | 0.00 | 79 | 1010.5 |
| 20260506123024 | 60 | 121 | 3.0 | 12.0 | 0.00 | 0.00 | 0.00 | 81 | 1010.3 |
| 20260506121527 | 60 | 183 | 4.0 | 11.0 | 0.00 | 0.00 | 0.00 | 81 | 1010.7 |
| 20260506120026 | 60 | 221 | 3.0 | 17.0 | 0.00 | 0.00 | 0.00 | 82 | 1010.9 |
| 20260506114520 | 59 | 170 | 2.0 | 10.0 | 0.00 | 0.00 | 0.00 | 83 | 1011.0 |
| 20260506113022 | 58 | 224 | 1.0 | 12.0 | 0.00 | 0.00 | 0.00 | 85 | 1010.9 |
| 20260506111522 | 58 | 141 | 3.0 | 11.0 | 0.00 | 0.00 | 0.00 | 85 | 1010.8 |
| 20260506110025 | 58 | 213 | 3.0 | 13.0 | 0.00 | 0.00 | 0.00 | 85 | 1010.9 |
| 20260506104528 | 58 | 128 | 3.0 | 12.0 | 0.00 | 0.00 | 0.00 | 86 | 1010.9 |
| 20260506103028 | 57 | 205 | 5.0 | 13.0 | 0.00 | 0.00 | 0.00 | 86 | 1010.9 |
| 20260506101535 | 57 | 228 | 4.0 | 12.0 | 0.00 | 0.00 | 0.00 | 86 | 1010.9 |
| 20260506100023 | 57 | 276 | 3.0 | 12.0 | 0.00 | 0.00 | 0.00 | 86 | 1010.7 |
| 20260506094526 | 57 | 180 | 2.0 | 10.0 | 0.00 | 0.00 | 0.00 | 86 | 1010.7 |
| 20260506093016 | 57 | 90 | 4.0 | 10.0 | 0.00 | 0.00 | 0.00 | 86 | 1010.7 |
| 20260506091504 | 57 | 263 | 4.0 | 12.0 | 0.00 | 0.00 | 0.00 | 85 | 1010.7 |
| 20260506090007 | 57 | 145 | 4.0 | 12.0 | 0.00 | 0.00 | 0.00 | 85 | 1010.8 |
| 20260506084516 | 57 | 242 | 3.0 | 14.0 | 0.00 | 0.00 | 0.00 | 85 | 1010.8 |
| 20260506083008 | 57 | 181 | 3.0 | 10.0 | 0.00 | 0.00 | 0.00 | 84 | 1010.9 |
| 20260506081516 | 57 | 211 | 4.0 | 11.0 | 0.00 | 0.00 | 0.00 | 84 | 1010.8 |
| 20260506073010 | 58 | 233 | 4.0 | 11.0 | 0.00 | 0.00 | 0.00 | 83 | 1010.7 |
| 20260506071515 | 58 | 162 | 3.0 | 8.0 | 0.00 | 0.00 | 0.00 | 82 | 1010.6 |
| 20260506061512 | 59 | 255 | 4.0 | 11.0 | 0.00 | 0.00 | 0.00 | 79 | 1010.4 |